Location: Kunchanapalle
(16.4623°N, 80.6176°E)
Time: 18:18:09
(UTC+00:00)

Lacrosse 5 rocket - Pass Details

Date: 13 August 2020
Orbit: 464 x 632 km, 57.0° (Epoch: 17 September)

Event Time Altitude Azimuth Distance (km) Brightness Sun altitude
Exits shadow 21:46:34 19° 66° (ENE) 1,433 4.0 -35.1°
Drops below altitude 10° 21:48:09 10° 54° (NE) 1,963 4.9 -34.7°
Sets 21:50:38 0° 45° (NE) 2,887 6.0 -34.2°
